Hourly Data Report for May 17, 2022

OTTAWA INTL A
ONTARIO
Current Station Operator: NAVCAN

45°19'00.000" N
75°40'00.000" W
114.90 m
6106001
71628
YOW

Download Data

Hourly Data (May 2022)
Hourly Data Report for May 17, 2022
TIME
LST
Temp Definition
°C
Dew Point Definition
°C
Rel Hum Definition
%
Precip. Amount Definition
mm

Wind Dir Definition
10's deg

Wind Spd Definition
km/h
Visibility Definition
km
Stn Press Definition
kPa
Hmdx Definition


Wind Chill Definition


Weather Definition


00:00 10.4 9.4 93   27 26 16.1 98.71     Rain
01:00 10.3 9.4 94   27 21 12.9 98.73     Rain
02:00 10.3 9.6 95   26 18 12.9 98.73     Rain
03:00 10.3 9.7 96   24 12 16.1 98.69     Drizzle
04:00 10.4 9.3 93   24 22 16.1 98.65     Mostly Cloudy
05:00 9.8 8.0 88   25 24 24.1 98.66     LegendNANA
06:00 9.9 7.8 87   26 22 24.1 98.73     LegendNANA
07:00 10.4 8.4 87   26 19 24.1 98.76     Cloudy
08:00 11.0 8.9 87   26 25 24.1 98.83     LegendNANA
09:00 11.2 9.4 89   27 28 24.1 98.89     Rain
10:00 12.7 10.3 85   26 27 24.1 98.92     Rain
11:00 14.1 11.3 83   27 32 24.1 98.99     LegendNANA
12:00 12.6 10.8 89   27 27 24.1 99.05     LegendNANA
13:00 13.8 11.8 88   27 24 24.1 99.10     Rain
14:00 14.7 11.0 78   28 30 24.1 99.14     LegendNANA
15:00 14.4 8.1 66   29 35 24.1 99.21     LegendNANA
16:00 14.7 6.7 59   28 29 24.1 99.28     Mostly Cloudy
17:00 13.4 6.2 61   29 37 24.1 99.37     LegendNANA
18:00 12.6 4.7 58   29 40 24.1 99.49     LegendNANA
19:00 12.1 3.8 57   29 28 24.1 99.57     Mostly Cloudy
20:00 10.9 3.9 62   28 21 24.1 99.66     LegendNANA
21:00 9.8 3.9 66   27 18 24.1 99.76     LegendNANA
22:00 8.6 4.1 73   28 15 24.1 99.80     Mainly Clear
23:00 6.7 4.1 83   26 14 24.1 99.87     LegendNANA

Notes on Data Quality.

Legend

  • E = Estimated
  • M = Missing
  • NA = Not Available*
  • [empty] = Indicates an unobserved value
Date modified: